This demonstration page uses our WeatherBlox Daily Observations layout. Learn more.

Left ArrowRight Arrow

39.08367, -84.50855

Hourly Observations for November 7, 2015

Temp ( °F °C ) Dew Point ( °F °C ) Humidity (%) Winds ( mph kmh ) Pressure ( in mb ) Visibility ( mi km ) Precip ( " mm )
12:53 am 00:53 Mostly Clear 51 10.6 43 6.1 74 74 N 3 6 30.19 1023 10 16 0.00 0.00
1:53 am 01:53 Clear 50 10 43 6.1 77 77 N 5 7 30.19 1022 10 16 0.00 0.00
2:53 am 02:53 Clear 50 10 43 6.1 77 77 NW 8 13 30.22 1023 10 16 0.00 0.00
3:53 am 03:53 Clear 49 9.4 41 5 74 74 NNW 3 6 30.22 1023 10 16 0.00 0.00
4:53 am 04:53 Clear 48 8.9 41 5 77 77 NW 8 13 30.24 1024 10 16 0.00 0.00
5:53 am 05:53 Clear 47 8.3 40 4.4 77 77 NNW 8 13 30.26 1025 10 16 0.00 0.00
6:53 am 06:53 Clear 46 7.8 40 4.4 79 79 NW 5 7 30.27 1025 10 16 0.00 0.00
7:53 am 07:53 Sunny 46 7.8 39 3.9 77 77 NNW 3 6 30.29 1026 10 16 0.00 0.00
8:53 am 08:53 Sunny 47 8.3 39 3.9 74 74 NNW 7 11 30.31 1026 10 16 0.00 0.00
9:53 am 09:53 Sunny 50 10 39 3.9 66 66 NW 10 17 30.31 1026 10 16 0.00 0.00
10:53 am 10:53 Sunny 52 11.1 39 3.9 61 61 NW 10 17 30.31 1027 10 16 0.00 0.00
11:53 am 11:53 Sunny 55 12.8 37 2.8 51 51 N 7 11 30.30 1026 10 16 0.00 0.00
12:53 pm 12:53 Sunny 56 13.3 35 1.7 46 46 NNW 10 17 30.29 1026 10 16 0.00 0.00
1:53 pm 13:53 Sunny 55 12.8 34 1.1 45 45 WNW 12 19 30.28 1025 10 16 0.00 0.00
2:53 pm 14:53 Sunny 54 12.2 33 0.6 45 45 WNW 6 9 30.27 1025 10 16 0.00 0.00
3:53 pm 15:53 Sunny 54 12.2 32 0 43 43 NNW 8 13 30.29 1026 10 16 0.00 0.00
4:53 pm 16:53 Sunny 53 11.7 34 1.1 48 48 NW 5 7 30.30 1026 10 16 0.00 0.00
5:53 pm 17:53 Clear 52 11.1 31 -0.6 45 45 NNW 3 6 30.32 1027 10 16 0.00 0.00
6:53 pm 18:53 Clear 50 10 32 0 50 50 N 6 9 30.35 1028 10 16 0.00 0.00
7:53 pm 19:53 Clear 49 9.4 33 0.6 55 55 N 5 7 30.36 1028 10 16 0.00 0.00
8:53 pm 20:53 Clear 43 6.1 38 3.3 82 82 Calm 30.38 1029 10 16 0.00 0.00
9:53 pm 21:53 Clear 41 5 37 2.8 86 86 Calm 30.40 1029 10 16 0.00 0.00
10:53 pm 22:53 Clear 40 4.4 38 3.3 93 93 Calm 30.40 1030 10 16 0.00 0.00
11:53 pm 23:53 Clear 38 3.3 38 3.3 100 100 Calm 30.40 1030 10 16 0.00 0.00

Powered by AerisWeather